This demonstration page uses our WeatherBlox Daily Observations layout. Learn more.

Left ArrowRight Arrow

41.86663, -103.66717

Hourly Observations for August 15, 2018

Temp ( °F °C ) Dew Point ( °F °C ) Humidity (%) Winds ( mph kmh ) Pressure ( in mb ) Visibility ( mi km ) Precip ( " mm )
12:53 am 00:53 Clear 62 16.7 60 15.6 93 93 E 12 19 29.93 1014 10 16 0.00 0.00
1:53 am 01:53 Clear 61 16.1 60 15.6 97 97 NNE 6 9 29.93 1014 10 16 0.00 0.00
2:53 am 02:53 Clear 61 16.1 60 15.6 97 97 E 8 13 29.91 1013 10 16 0.00 0.00
3:53 am 03:53 Clear 60 15.6 60 15.6 100 100 E 15 24 29.88 1012 10 16 0.00 0.00
4:53 am 04:53 Clear 60 15.6 60 15.6 100 100 ESE 7 11 29.89 1012 9 14 0.00 0.00
5:53 am 05:53 Clear 56 13.3 56 13.3 100 100 SSW 5 7 29.91 1013 7 11 0.00 0.00
6:53 am 06:53 Sunny with Mist and Fog 58 14.4 58 14.4 100 100 W 6 9 29.92 1013 5 8 0.00 0.00
7:53 am 07:53 Sunny 63 17.2 61 16.1 93 93 WNW 8 13 29.93 1014 9 14 0.00 0.00
8:45 am 08:45 Mostly Cloudy 64 17.8 61 16.1 90 90 WNW 10 17 29.91 1013 9 14 0.00 0.00
8:53 am 08:53 Cloudy 64 17.8 61 16.1 90 90 WNW 12 19 29.95 1014 9 14 0.00 0.00
9:24 am 09:24 Cloudy 66 19 61 16 83 83 NW 7 11 29.88 1012 9 14 0.00 0.00
9:53 am 09:53 Cloudy 66 18.9 61 16.1 84 84 W 5 7 29.95 1014 10 16 0.00 0.00
10:17 am 10:17 Partly Cloudy 68 20 61 16.1 78 78 SW 6 9 29.88 1012 10 16 0.00 0.00
10:49 am 10:49 Mostly Cloudy 68 20 61 16 78 78 VRB 6 9 29.88 1012 10 16 0.00 0.00
10:53 am 10:53 Mostly Cloudy 68 20 61 16.1 78 78 SSW 6 9 29.94 1014 10 16 0.00 0.00
11:53 am 11:53 Mostly Cloudy 71 21.7 62 16.7 73 73 SW 6 9 29.94 1014 10 16 0.00 0.00
12:19 pm 12:19 Partly Cloudy 74 23.3 62 16.7 67 67 VRB 6 9 29.83 1010 10 16 0.00 0.00
12:53 pm 12:53 Partly Cloudy 78 25.6 64 17.8 62 62 WNW 6 9 29.92 1013 10 16 0.00 0.00
1:03 pm 13:03 Mostly Cloudy 77 25 63 17.2 62 62 VRB 3 6 29.77 1008 10 16 0.00 0.00
1:10 pm 13:10 Partly Cloudy 78 25.6 63 17.2 60 60 W 9 15 29.77 1008 10 16 0.00 0.00
1:53 pm 13:53 Sunny 79 26.1 63 17.2 58 58 VRB 3 6 29.90 1013 10 16 0.00 0.00
2:53 pm 14:53 Sunny 80 26.7 63 17.2 56 56 VRB 3 6 29.88 1012 10 16 0.00 0.00
3:53 pm 15:53 Sunny 82 27.8 62 16.7 51 51 VRB 3 6 29.86 1011 10 16 0.00 0.00
4:53 pm 16:53 Sunny 85 29.4 60 15.6 43 43 Calm 29.84 1011 10 16 0.00 0.00
5:53 pm 17:53 Sunny 84 28.9 62 16.7 48 48 ENE 5 7 29.85 1011 10 16 0.00 0.00
6:53 pm 18:53 Sunny 80 26.7 59 15 49 49 ENE 7 11 29.85 1011 10 16 0.00 0.00
7:53 pm 19:53 Sunny 74 23.3 60 15.6 62 62 E 15 24 29.89 1012 10 16 0.00 0.00
8:53 pm 20:53 Clear 67 19.4 63 17.2 87 87 E 9 15 29.95 1014 10 16 0.00 0.00
9:53 pm 21:53 Clear 64 17.8 61 16.1 90 90 E 7 11 29.97 1015 10 16 0.00 0.00
10:53 pm 22:53 Clear 62 16.7 60 15.6 93 93 ENE 7 11 29.98 1015 10 16 0.00 0.00
11:53 pm 23:53 Clear 60 15.6 59 15 96 96 ENE 6 9 29.98 1015 10 16 0.00 0.00

Powered by AerisWeather